| time (UTC) | temp F | wind direction | speed MPH | gust MPH | rain 1hr in | rain 24hr in | rain mn in | humidity % | barometer mb |
| 20260901190132 | 83 | 242 | 0.0 | 0.0 | 0.00 | 0.00 | 0.00 | 81 | 1008.7 |
| 20260901185128 | 83 | 205 | 0.0 | 1.0 | 0.00 | 0.00 | 0.00 | 81 | 1008.9 |
| 20260901184125 | 83 | 141 | 0.0 | 2.0 | 0.00 | 0.00 | 0.00 | 81 | 1008.9 |
| 20260901183121 | 83 | 135 | 0.0 | 1.0 | 0.00 | 0.00 | 0.00 | 81 | 1008.8 |
| 20260901182120 | 83 | 242 | 0.0 | 0.0 | 0.00 | 0.00 | 0.00 | 81 | 1008.8 |
| 20260901181112 | 83 | 103 | 0.0 | 0.0 | 0.00 | 0.00 | 0.00 | 81 | 1008.9 |
| 20260901180609 | 83 | 269 | 0.0 | 1.0 | 0.00 | 0.00 | 0.00 | 81 | 1009.2 |
| 20260901175607 | 84 | 284 | 0.0 | 1.0 | 0.00 | 0.00 | 0.00 | 81 | 1009.3 |
| 20260901174104 | 84 | 89 | 0.0 | 0.0 | 0.00 | 0.00 | 0.00 | 80 | 1009.5 |
| 20260901173103 | 84 | 37 | 0.0 | 2.0 | 0.00 | 0.00 | 0.00 | 80 | 1009.7 |
| 20260901172104 | 84 | 158 | 0.0 | 1.0 | 0.00 | 0.00 | 0.00 | 80 | 1009.9 |
| 20260901171103 | 84 | 50 | 0.0 | 0.0 | 0.00 | 0.00 | 0.00 | 81 | 1010.0 |
| 20260901171047 | 84 | 89 | 0.0 | 1.0 | 0.00 | 0.00 | 0.00 | 81 | 1010.1 |
| 20260901165548 | 84 | 135 | 0.0 | 0.0 | 0.00 | 0.00 | 0.00 | 80 | 1010.1 |
| 20260901164104 | 84 | 284 | 0.0 | 0.0 | 0.00 | 0.00 | 0.00 | 80 | 1009.9 |
| 20260901163104 | 84 | 269 | 0.0 | 0.0 | 0.00 | 0.00 | 0.00 | 80 | 1010.1 |
| 20260901162104 | 84 | 297 | 0.0 | 1.0 | 0.00 | 0.00 | 0.00 | 80 | 1010.3 |
| 20260901161104 | 84 | 235 | 0.0 | 1.0 | 0.00 | 0.00 | 0.00 | 80 | 1010.3 |
| 20260901155104 | 84 | 239 | 0.0 | 1.0 | 0.00 | 0.00 | 0.00 | 80 | 1010.4 |
| 20260901154104 | 84 | 269 | 0.0 | 0.0 | 0.00 | 0.00 | 0.00 | 80 | 1010.6 |
| 20260901153107 | 84 | 333 | 0.0 | 2.0 | 0.00 | 0.00 | 0.00 | 80 | 1010.6 |
| 20260901152104 | 84 | 113 | 0.0 | 2.0 | 0.00 | 0.00 | 0.00 | 80 | 1010.6 |
| 20260901151105 | 84 | 249 | 0.0 | 1.0 | 0.00 | 0.00 | 0.00 | 79 | 1010.6 |
| 20260901150104 | 84 | 105 | 0.0 | 1.0 | 0.00 | 0.00 | 0.00 | 79 | 1010.5 |
| 20260901145104 | 84 | 269 | 0.0 | 1.0 | 0.00 | 0.00 | 0.00 | 79 | 1010.6 |
| 20260901144108 | 84 | 104 | 0.0 | 1.0 | 0.00 | 0.00 | 0.00 | 79 | 1010.3 |
| 20260901143106 | 84 | 238 | 0.0 | 0.0 | 0.00 | 0.00 | 0.00 | 78 | 1010.1 |
| 20260901142103 | 84 | 269 | 0.0 | 0.0 | 0.00 | 0.00 | 0.00 | 78 | 1009.8 |
| 20260901141103 | 84 | 304 | 0.0 | 0.0 | 0.00 | 0.00 | 0.00 | 77 | 1009.7 |
| 20260901140104 | 84 | 269 | 0.0 | 0.0 | 0.00 | 0.00 | 0.00 | 77 | 1009.6 |
| 20260901135102 | 84 | 224 | 0.0 | 1.0 | 0.00 | 0.00 | 0.00 | 76 | 1009.4 |
| 20260901134108 | 84 | 256 | 0.0 | 1.0 | 0.00 | 0.00 | 0.00 | 76 | 1009.4 |
| 20260901133102 | 84 | 25 | 0.0 | 1.0 | 0.00 | 0.00 | 0.00 | 75 | 1009.2 |
| 20260901132102 | 84 | 304 | 0.0 | 1.0 | 0.00 | 0.00 | 0.00 | 75 | 1009.0 |
| 20260901131100 | 84 | 126 | 0.0 | 2.0 | 0.00 | 0.00 | 0.00 | 75 | 1008.9 |
| 20260901130100 | 85 | 97 | 0.0 | 2.0 | 0.00 | 0.00 | 0.00 | 75 | 1008.9 |
| 20260901125100 | 85 | 299 | 0.0 | 2.0 | 0.00 | 0.00 | 0.00 | 74 | 1008.8 |
| 20260901124059 | 85 | 78 | 0.0 | 2.0 | 0.00 | 0.00 | 0.00 | 75 | 1008.6 |
| 20260901123058 | 85 | 258 | 1.0 | 2.0 | 0.00 | 0.00 | 0.00 | 75 | 1008.7 |
| 20260901122059 | 85 | 317 | 0.0 | 2.0 | 0.00 | 0.00 | 0.00 | 74 | 1008.6 |
| 20260901121058 | 85 | 117 | 0.0 | 2.0 | 0.00 | 0.00 | 0.00 | 74 | 1008.4 |
| 20260901120057 | 85 | 254 | 1.0 | 3.0 | 0.00 | 0.00 | 0.00 | 74 | 1008.2 |
| 20260901115100 | 85 | 160 | 0.0 | 4.0 | 0.00 | 0.00 | 0.00 | 74 | 1008.1 |
| 20260901114058 | 85 | 224 | 1.0 | 3.0 | 0.00 | 0.00 | 0.00 | 74 | 1008.0 |
| 20260901113056 | 85 | 65 | 0.0 | 7.0 | 0.00 | 0.00 | 0.00 | 73 | 1008.2 |
| 20260901112055 | 85 | 344 | 0.0 | 7.0 | 0.00 | 0.00 | 0.00 | 73 | 1008.1 |
| 20260901111543 | 85 | 206 | 2.0 | 5.0 | 0.00 | 0.00 | 0.00 | 75 | 1007.6 |
| 20260901110055 | 85 | 283 | 1.0 | 2.0 | 0.00 | 0.00 | 0.00 | 76 | 1007.5 |
| 20260901105054 | 86 | 4 | 0.0 | 3.0 | 0.00 | 0.00 | 0.00 | 76 | 1006.8 |
| 20260901104053 | 86 | 239 | 2.0 | 3.0 | 0.00 | 0.00 | 0.00 | 77 | 1006.7 |
| 20260901103054 | 86 | 173 | 0.0 | 3.0 | 0.00 | 0.00 | 0.00 | 77 | 1006.7 |
| 20260901102053 | 86 | 305 | 0.0 | 2.0 | 0.00 | 0.00 | 0.00 | 77 | 1006.6 |
| 20260901101051 | 86 | 51 | 0.0 | 6.0 | 0.00 | 0.00 | 0.00 | 76 | 1006.5 |
| 20260901100923 | 86 | 351 | 1.0 | 3.0 | 0.00 | 0.00 | 0.00 | 74 | 1006.5 |
| 20260901100436 | 86 | 56 | 3.0 | 8.0 | 0.00 | 0.00 | 0.00 | 74 | 1006.4 |
| 20260901100222 | 86 | 226 | 2.0 | 6.0 | 0.00 | 0.00 | 0.00 | 75 | 1006.4 |
| 20260901093734 | 86 | 257 | 5.0 | 8.0 | 0.00 | 0.00 | 0.00 | 72 | 1006.3 |
| 20260901092208 | 86 | 163 | 0.0 | 3.0 | 0.00 | 0.00 | 0.00 | 71 | 1006.1 |
| 20260901091206 | 86 | 44 | 0.0 | 4.0 | 0.00 | 0.00 | 0.00 | 71 | 1006.0 |
| 20260901090729 | 86 | 267 | 1.0 | 6.0 | 0.00 | 0.00 | 0.00 | 71 | 1006.0 |
| 20260901085202 | 86 | 278 | 2.0 | 4.0 | 0.00 | 0.00 | 0.00 | 71 | 1006.1 |
| 20260901084717 | 86 | 331 | 0.0 | 6.0 | 0.00 | 0.00 | 0.00 | 71 | 1006.1 |
| 20260901083153 | 86 | 269 | 2.0 | 6.0 | 0.00 | 0.00 | 0.00 | 71 | 1006.3 |
| 20260901082155 | 86 | 251 | 3.0 | 5.0 | 0.00 | 0.00 | 0.00 | 72 | 1006.4 |
| 20260901081150 | 86 | 276 | 3.0 | 4.0 | 0.00 | 0.00 | 0.00 | 72 | 1006.4 |
| 20260901080149 | 86 | 225 | 2.0 | 4.0 | 0.00 | 0.00 | 0.00 | 72 | 1006.6 |
| 20260901075146 | 86 | 267 | 2.0 | 5.0 | 0.00 | 0.00 | 0.00 | 72 | 1006.7 |
| 20260901074139 | 86 | 315 | 0.0 | 3.0 | 0.00 | 0.00 | 0.00 | 72 | 1006.9 |
| 20260901073136 | 86 | 67 | 2.0 | 4.0 | 0.00 | 0.00 | 0.00 | 72 | 1007.0 |
| 20260901072134 | 85 | 310 | 1.0 | 6.0 | 0.00 | 0.00 | 0.00 | 72 | 1007.0 |
| 20260901071136 | 85 | 250 | 3.0 | 4.0 | 0.00 | 0.00 | 0.00 | 72 | 1007.1 |
| 20260901070134 | 85 | 306 | 4.0 | 5.0 | 0.00 | 0.00 | 0.00 | 72 | 1007.2 |
| 20260901065133 | 85 | 266 | 3.0 | 6.0 | 0.00 | 0.00 | 0.00 | 73 | 1007.3 |
| 20260901064128 | 85 | 270 | 2.0 | 7.0 | 0.00 | 0.00 | 0.00 | 72 | 1007.6 |
| 20260901063635 | 85 | 289 | 0.0 | 7.0 | 0.00 | 0.00 | 0.00 | 73 | 1007.8 |
| 20260901062632 | 85 | 275 | 2.0 | 5.0 | 0.00 | 0.00 | 0.00 | 73 | 1007.9 |
| 20260901061627 | 85 | 222 | 2.0 | 7.0 | 0.00 | 0.00 | 0.00 | 73 | 1008.0 |
| 20260901060106 | 85 | 249 | 3.0 | 6.0 | 0.00 | 0.00 | 0.00 | 74 | 1008.1 |
| 20260901055100 | 84 | 231 | 2.0 | 5.0 | 0.00 | 0.00 | 0.00 | 75 | 1008.4 |
| 20260901054057 | 84 | 36 | 2.0 | 3.0 | 0.00 | 0.00 | 0.00 | 76 | 1008.6 |
| 20260901053110 | 84 | 269 | 0.0 | 3.0 | 0.00 | 0.00 | 0.00 | 76 | 1009.0 |
| 20260901053055 | 84 | 327 | 0.0 | 3.0 | 0.00 | 0.00 | 0.00 | 76 | 1008.8 |
| 20260901051047 | 84 | 263 | 0.0 | 4.0 | 0.00 | 0.00 | 0.00 | 76 | 1009.2 |
| 20260901050045 | 84 | 240 | 4.0 | 4.0 | 0.00 | 0.00 | 0.00 | 76 | 1009.3 |
| 20260901045041 | 84 | 281 | 1.0 | 3.0 | 0.00 | 0.00 | 0.00 | 77 | 1009.3 |
| 20260901044041 | 84 | 318 | 2.0 | 5.0 | 0.00 | 0.00 | 0.00 | 77 | 1009.5 |
| 20260901043037 | 84 | 230 | 2.0 | 4.0 | 0.00 | 0.00 | 0.00 | 77 | 1009.7 |
| 20260901042535 | 83 | 198 | 2.0 | 4.0 | 0.00 | 0.00 | 0.00 | 77 | 1009.7 |
| 20260901041033 | 83 | 246 | 2.0 | 5.0 | 0.00 | 0.00 | 0.00 | 78 | 1009.8 |
| 20260901040533 | 83 | 251 | 1.0 | 3.0 | 0.00 | 0.00 | 0.00 | 78 | 1009.8 |
| 20260901035033 | 83 | 288 | 2.0 | 4.0 | 0.00 | 0.00 | 0.00 | 78 | 1009.9 |
| 20260901034033 | 83 | 323 | 2.0 | 4.0 | 0.00 | 0.00 | 0.00 | 78 | 1009.9 |
| 20260901033032 | 83 | 315 | 2.0 | 4.0 | 0.00 | 0.00 | 0.00 | 79 | 1010.0 |
| 20260901032033 | 83 | 269 | 2.0 | 4.0 | 0.00 | 0.00 | 0.00 | 79 | 1010.0 |
| 20260901031038 | 83 | 169 | 1.0 | 2.0 | 0.00 | 0.00 | 0.00 | 79 | 1009.9 |
| 20260901030032 | 83 | 146 | 0.0 | 3.0 | 0.00 | 0.00 | 0.00 | 80 | 1009.9 |
| 20260901025032 | 83 | 319 | 0.0 | 3.0 | 0.00 | 0.00 | 0.00 | 80 | 1009.9 |
| 20260901024032 | 83 | 275 | 0.0 | 4.0 | 0.00 | 0.00 | 0.00 | 80 | 1010.1 |
| 20260901023032 | 83 | 278 | 0.0 | 3.0 | 0.00 | 0.00 | 0.00 | 80 | 1010.0 |
| 20260901022514 | 83 | 272 | 1.0 | 3.0 | 0.00 | 0.00 | 0.00 | 80 | 1010.0 |
| 20260901021032 | 83 | 297 | 0.0 | 2.0 | 0.00 | 0.00 | 0.00 | 80 | 1009.8 |
| 20260901020030 | 83 | 58 | 0.0 | 2.0 | 0.00 | 0.00 | 0.00 | 80 | 1009.9 |
| 20260901015034 | 83 | 284 | 0.0 | 2.0 | 0.00 | 0.00 | 0.00 | 80 | 1009.8 |
| 20260901014032 | 83 | 255 | 0.0 | 2.0 | 0.00 | 0.00 | 0.00 | 81 | 1009.7 |
| 20260901013032 | 83 | 38 | 0.0 | 2.0 | 0.00 | 0.00 | 0.00 | 81 | 1009.5 |
| 20260901012506 | 83 | 212 | 0.0 | 1.0 | 0.00 | 0.00 | 0.00 | 81 | 1009.3 |
| 20260901011946 | 83 | 269 | 0.0 | 1.0 | 0.00 | 0.00 | 0.00 | 82 | 1009.3 |
| 20260901010032 | 83 | 135 | 0.0 | 1.0 | 0.00 | 0.00 | 0.00 | 81 | 1009.2 |
| 20260901005032 | 83 | 245 | 0.0 | 0.0 | 0.00 | 0.00 | 0.00 | 81 | 1009.0 |
| 20260901004032 | 82 | 44 | 0.0 | 0.0 | 0.00 | 0.00 | 0.00 | 81 | 1008.9 |
| 20260901003031 | 82 | 44 | 0.0 | 0.0 | 0.00 | 0.00 | 0.00 | 81 | 1008.7 |
| 20260901002031 | 82 | 89 | 0.0 | 0.0 | 0.00 | 0.00 | 0.00 | 81 | 1008.6 |
| 20260901001031 | 82 | 269 | 0.0 | 0.0 | 0.00 | 0.00 | 0.00 | 81 | 1008.4 |
| 20260901000031 | 82 | 212 | 0.0 | 0.0 | 0.00 | 0.00 | 0.00 | 81 | 1008.4 |
| 20260831235031 | 82 | 224 | 0.0 | 1.0 | 0.00 | 0.00 | 0.00 | 81 | 1008.2 |
| 20260831234032 | 82 | 62 | 0.0 | 1.0 | 0.00 | 0.00 | 0.00 | 80 | 1008.1 |
| 20260831233036 | 82 | 242 | 0.0 | 0.0 | 0.00 | 0.00 | 0.00 | 80 | 1008.1 |
| 20260831232032 | 82 | 75 | 0.0 | 1.0 | 0.00 | 0.00 | 0.00 | 80 | 1008.0 |
| 20260831231031 | 82 | 66 | 0.0 | 1.0 | 0.00 | 0.00 | 0.00 | 80 | 1008.0 |
| 20260831230031 | 82 | 224 | 0.0 | 0.0 | 0.00 | 0.00 | 0.00 | 80 | 1007.9 |
| 20260831225031 | 82 | 284 | 0.0 | 1.0 | 0.00 | 0.00 | 0.00 | 80 | 1008.0 |
| 20260831224031 | 82 | 229 | 0.0 | 0.0 | 0.00 | 0.00 | 0.00 | 80 | 1008.1 |
| 20260831223031 | 82 | 55 | 0.0 | 1.0 | 0.00 | 0.00 | 0.00 | 80 | 1008.0 |
| 20260831222509 | 83 | 244 | 0.0 | 1.0 | 0.00 | 0.00 | 0.00 | 80 | 1008.1 |
| 20260831221031 | 83 | 242 | 0.0 | 1.0 | 0.00 | 0.00 | 0.00 | 79 | 1008.0 |
| 20260831220031 | 83 | 37 | 0.0 | 1.0 | 0.00 | 0.00 | 0.00 | 79 | 1008.0 |
| 20260831215954 | 83 | 315 | 0.0 | 1.0 | 0.00 | 0.00 | 0.00 | 79 | 1008.0 |
| 20260831214030 | 83 | 55 | 0.0 | 2.0 | 0.00 | 0.00 | 0.00 | 79 | 1007.9 |
| 20260831213031 | 83 | 297 | 0.0 | 1.0 | 0.00 | 0.00 | 0.00 | 79 | 1007.8 |
| 20260831212031 | 83 | 254 | 0.0 | 2.0 | 0.00 | 0.00 | 0.00 | 79 | 1007.8 |
| 20260831211508 | 83 | 319 | 0.0 | 2.0 | 0.00 | 0.00 | 0.00 | 79 | 1007.8 |
| 20260831210204 | 83 | 256 | 0.0 | 1.0 | 0.00 | 0.00 | 0.00 | 79 | 1007.7 |
| 20260831205159 | 83 | 164 | 0.0 | 1.0 | 0.00 | 0.00 | 0.00 | 79 | 1007.6 |
| 20260831204721 | 83 | 224 | 0.0 | 0.0 | 0.00 | 0.00 | 0.00 | 79 | 1007.7 |
| 20260831203718 | 83 | 217 | 0.0 | 2.0 | 0.00 | 0.00 | 0.00 | 78 | 1007.7 |
| 20260831203157 | 83 | 293 | 0.0 | 1.0 | 0.00 | 0.00 | 0.00 | 78 | 1007.7 |
| 20260831201150 | 83 | 166 | 1.0 | 1.0 | 0.00 | 0.00 | 0.00 | 78 | 1007.7 |
| 20260831200147 | 83 | 31 | 0.0 | 1.0 | 0.00 | 0.00 | 0.00 | 78 | 1007.7 |
| 20260831195143 | 83 | 179 | 0.0 | 1.0 | 0.00 | 0.00 | 0.00 | 78 | 1007.7 |
| 20260831194140 | 83 | 75 | 0.0 | 2.0 | 0.00 | 0.00 | 0.00 | 78 | 1007.7 |
| 20260831193136 | 83 | 108 | 1.0 | 2.0 | 0.00 | 0.00 | 0.00 | 78 | 1007.8 |
| 20260831192131 | 83 | 167 | 0.0 | 2.0 | 0.00 | 0.00 | 0.00 | 77 | 1008.0 |
| 20260831191133 | 83 | 151 | 0.0 | 2.0 | 0.00 | 0.00 | 0.00 | 77 | 1008.1 |